Regional Weather Roundup
Issued by NWS

Home | Current Version | Previous Version | Text Only | Print | Product List | Glossary Off
Versions: 1 2 3 4 5 6 7 8 9 10 11 12 13 14 15 16 17 18 19 20 21 22 23 24 25 26 27 28 29 30 31 32 33 34 35 36 37 38 39 40 41 42 43 44 45 46 47 48 49 50

000
ASUS43 KLOT 201908
RWRIL

ILLINOIS REGIONAL WEATHER ROUNDUP
NATIONAL WEATHER SERVICE CHICAGO/ROMEOVILLE IL
200 PM CDT SUN AUG 20 2017

NOTE: "FAIR" INDICATES FEW OR NO CLOUDS BELOW 12,000 FEET WITH NO
SIGNIFICANT WEATHER AND/OR OBSTRUCTIONS TO VISIBILITY.

* THESE STATIONS ARE NOT UNDER NWS QUALITY CONTROL. THEY ALSO MAY NOT
  REPORT WEATHER SUCH AS PRECIPITATION OR FOG.

ILZ001-002-007-009-015-016-024-202000-
NORTHWEST ILLINOIS

CITY           SKY/WX    TMP DP  RH WIND       PRES   REMARKS
MOLINE         CLOUDY    76  67  73 E8        29.98
STERLING*      CLOUDY    76  69  79 E10       29.97F
SAVANNA*       LGT RAIN  75  67  78 NE6       29.96F
$$

ILZ003-004-008-010-011-017-018-202000-
NORTH CENTRAL ILLINOIS

CITY           SKY/WX    TMP DP  RH WIND       PRES   REMARKS
ROCKFORD       CLOUDY    80  66  62 N5        30.03F HX  82
FREEPORT*      CLOUDY    78  65  64 NE3       30.03F HX  80
ROCHELLE*      CLOUDY    79  67  67 CALM      30.04R HX  82
DE KALB*       CLOUDY    80  68  67 NW5       30.04S HX  83
PERU*          CLOUDY    78  68  71 SE6       30.04R HX  80
$$

ILZ005-006-012>014-019>023-202000-
NORTHEAST ILLINOIS

CITY           SKY/WX    TMP DP  RH WIND       PRES   REMARKS
CHICAGO-OHARE  PTSUNNY   87  65  47 W9        30.00F HX  89
CHICAGO-MIDWAY PTSUNNY   88  66  48 SW9       30.01F HX  90
AURORA         MOSUNNY   86  71  60 S7        30.03S HX  91
LANSING*       PTSUNNY   85  64  49 S7        30.03F HX  86
JOLIET*        MOSUNNY   85  71  63 SW5       30.03R HX  90
WAUKEGAN       MOSUNNY   80  68  66 E8        30.01F HX  83
DUPAGE AIRPORT MOSUNNY   85  70  60 SW6       30.01F HX  89
KANKAKEE*      MOSUNNY   85  70  61 S5        30.05R HX  89
WHEELING       MOSUNNY   87  67  51 W9        30.02F HX  90
MORRIS*        CLOUDY    81  71  71 SW6       30.02R HX  85
ROMEOVILLE*    CLOUDY    85  67  55 SW9       30.03R HX  88
NORTHERLY ISL    N/A     79  67  66 E12         N/A  HX  81
$$

LMZ740>746-202000-
SOUTHERN LAKE MICHIGAN

STATION/POSITION SKY/WX   TEMP    WIND        PRES    VSBY  WAVE
                          AIR SEA DIR/SP/G                  HT/PER
                          (F)     (DEG/KT/KT) (MB)    (MI)  (FT/S)
SOUTHERN BUOY              73 72  150/  8/  8 1017.0F         1/ 4
WILMETTE HARBOR            75 74  110/  8/ 10   N/A           1/ 3
HARRISON CRIB              78     120/ 14/ 14   N/A
CALUMET HARBOR             80      70/  9/ 12 1015.9F
BURNS HARBOR               80      80/  5/  6 1017.3F
MICHIGAN CITY              78      10/  6/  6   N/A
MICHIGAN CITY 6N           78 76   60/  6/  8   N/A           1
ST. JOSEPH                 82 78   CALM  /  2 1016.7          1
$$

ILZ025>027-034>036-040-047-049-050-058-095>099-202000-
WEST-CENTRAL ILLINOIS

CITY           SKY/WX    TMP DP  RH WIND       PRES   REMARKS
QUINCY         PTSUNNY   83  65  54 S9        29.98S HX  85
GALESBURG*     PTSUNNY   79  70  73 E5        30.00S HX  82
MACOMB*        CLOUDY    81  71  70 SE12      30.00F HX  85
JACKSONVILLE*  PTSUNNY   85  67  54 E10       29.99F HX  88
PITTSFIELD*    CLOUDY    84  72  67 SE9       30.00S HX  90
$$

ILZ028>032-037-038-041>044-048-051>054-059>061-202000-
CENTRAL ILLINOIS

CITY           SKY/WX    TMP DP  RH WIND       PRES   REMARKS
PONTIAC        CLOUDY    84  74  72 SW6       30.04S HX  92
BLOOMINGTON    CLOUDY    84  71  65 S5        30.05F HX  89
DECATUR        MOSUNNY   89  70  53 VRB6      30.03F HX  94
PEORIA         CLOUDY    82  69  64 NE6       30.01F HX  85
LACON*         CLOUDY    80  70  73 E8        30.00F HX  83
LINCOLN*       CLOUDY    87  73  63 E6        30.00F HX  94
SPRINGFIELD    CLOUDY    89  72  56 E6        30.00F HX  96
TAYLORVILLE    PTSUNNY   87  74  64 S3        30.02F HX  96
$$

ILZ033-039-045-046-055>057-062-063-202000-
EAST-CENTRAL ILLINOIS

CITY           SKY/WX    TMP DP  RH WIND       PRES   REMARKS
CHAMPAIGN      MOSUNNY   87  72  60 SW6       30.04F HX  93
RANTOUL*       CLOUDY    89  73  59 S5        30.04F HX  97
MATTOON        MOSUNNY   87  73  62 S7        30.03S HX  94
PARIS*         PTSUNNY   88  73  60 SE7       30.05S HX  95
$$

ILZ079-100>102-202000-
SOUTHWEST ILLINOIS

CITY           SKY/WX    TMP DP  RH WIND       PRES   REMARKS
ALTON          PTSUNNY   84  72  65 N5        30.02F HX  89
BELLEVILLE     MOSUNNY   88  71  57 CALM      30.03F HX  93
CAHOKIA*       MOSUNNY   91  65  41 VRB3      30.02F HX  93
SPARTA*        CLOUDY    90  76  64 SW5       30.04S HX 101
$$

ILZ064>066-069>071-074>076-080>082-084>086-088>090-092>094-202000-
SOUTH-CENTRAL ILLINOIS

CITY           SKY/WX    TMP DP  RH WIND       PRES   REMARKS
CARBONDALE     MOSUNNY   90  76  63 SW10      30.02F HX 101
CAIRO*         SUNNY     90  77  64 SE7       30.04S HX 103
EFFINGHAM*     MOSUNNY   90  73  56 SW8       30.04F HX  98
MARION         MOSUNNY   93  75  55 S9        30.04F HX 104
MT. VERNON       N/A     92  75  57 S8        30.02F HX 103
CENTRALIA*     MOSUNNY   92  74  56 SW6       30.01F HX 101
SALEM*         CLOUDY    92  70  47 W7        30.02S HX  98
METROPOLIS*    SUNNY     92  73  53 S3        30.04F HX 100
$$

ILZ067-068-072-073-078-083-087-091-202000-
SOUTHEAST ILLINOIS

CITY           SKY/WX    TMP DP  RH WIND       PRES   REMARKS
LAWRENCEVILLE  PTSUNNY   90  72  55 SW12      30.02F HX  97
FLORA*         PTSUNNY   92  75  57 SW6       30.02F HX 103
FAIRFIELD*     SUNNY     91  76  63 S3        30.01F HX 103
HARRISBURG*    MOSUNNY   95  68  41 S8        30.03F HX 100
ROBINSON*      MOSUNNY   88  74  61 SW3       30.03F HX  96
CARMI*         MOSUNNY   89  77  68 S7        30.02F HX 101
$$

ABBREVIATIONS USED IN REMARKS
   TC - TEMPERATURE IN CELSIUS
  WCI - WIND CHILL INDEX
   HX - HEAT INDEX
  VSB - VISIBILITY
$$





USA.gov is the U.S. government's official web portal to all federal, state and local government web resources and services.